Mount Pleasant, MI

10:16 PM EDT on June 23, 2017 (GMT -0400)
Mount Pleasant Municipal

Weather History for KMOP - June, 2013

Change the Weather History Date:

Friday, June 21, 2013

  Actual Average (KAMN) Record (KAMN)
Temperature  
Mean Temperature 70 °F -  
Max Temperature 84 °F 79 °F 97 °F (1988)
Min Temperature 55 °F 56 °F 37 °F (1992)
Cooling Degree Days 4    
Growing Degree Days 20 (Base 50)    
Moisture  
Dew Point 58 °F    
Average Humidity 65    
Maximum Humidity 94    
Minimum Humidity 41    
Precipitation  
Precipitation 0.00 in - - ()
Sea Level Pressure  
Sea Level Pressure 30.11 in    
Wind  
Wind Speed 3 mph (South)    
Max Wind Speed 17 mph    
Max Gust Speed 26 mph    
Visibility 10 miles    
Events      
Averages and records for this station are not official NWS values.
T = Trace of Precipitation, MM = Missing Value Source: NWS Daily Summary

Daily Weather History Graph

Daily Weather History Graph

Search for Another Location

Airport or City:

Trip Planner

Search our weather history database for the weather conditions in past years. The results will help you decide how hot, cold, wet, or windy it might be!

Date:

Astronomy

Jun. 21, 2013 Rise Set
Actual Time 5:57 AM EDT 9:24 PM EDT
Civil Twilight 5:21 AM EDT 10:00 PM EDT
Nautical Twilight 4:34 AM EDT 10:47 PM EDT
Astronomical Twilight 3:34 AM EDT 11:46 PM EDT
Moon 7:31 PM EDT (6/21) 4:15 AM EDT (6/21)
Length of Visible Light 16h 38m
Length of Day
15h 26m
Waxing Gibbous, 95% of the Moon is Illuminated
Jun 21
Waxing Gibbous
Jun 23
Full
Jun 30
Last Quarter
Jul 8
New
Jul 15
First Quarter

Hourly Weather History & Observations

Time (EDT) Temp. Heat Index Dew Point Humidity Pressure Visibility Wind Dir Wind Speed Gust Speed Precip Events Conditions
12:17 AM 58.6 °F - 53.4 °F 83% 30.18 in 10.0 mi Calm Calm - N/A   Clear
12:36 AM 59.0 °F - 52.9 °F 80% 30.18 in 10.0 mi Calm Calm - N/A   Clear
12:57 AM 58.6 °F - 53.6 °F 83% 30.18 in 10.0 mi Calm Calm - N/A   Clear
1:17 AM 59.4 °F - 53.6 °F 81% 30.18 in 10.0 mi Calm Calm - N/A   Clear
1:36 AM 57.9 °F - 54.5 °F 88% 30.18 in 10.0 mi Calm Calm - N/A   Clear
1:57 AM 57.4 °F - 54.0 °F 88% 30.18 in 10.0 mi Calm Calm - N/A   Clear
2:17 AM 57.2 °F - 54.0 °F 89% 30.18 in 10.0 mi Calm Calm - N/A   Clear
2:36 AM 57.2 °F - 53.6 °F 88% 30.18 in 10.0 mi Calm Calm - N/A   Clear
2:57 AM 57.7 °F - 54.3 °F 88% 30.18 in 10.0 mi Calm Calm - N/A   Clear
3:17 AM 57.9 °F - 54.3 °F 88% 30.17 in 10.0 mi Calm Calm - N/A   Clear
3:36 AM 56.5 °F - 54.1 °F 92% 30.17 in 10.0 mi Calm Calm - N/A   Clear
3:57 AM 57.2 °F - 54.7 °F 91% 30.16 in 10.0 mi Calm Calm - N/A   Clear
4:17 AM 57.2 °F - 54.0 °F 89% 30.16 in 10.0 mi Calm Calm - N/A   Clear
4:36 AM 57.0 °F - 54.7 °F 92% 30.16 in 10.0 mi Calm Calm - N/A   Clear
4:57 AM 57.2 °F - 54.1 °F 89% 30.16 in 10.0 mi Calm Calm - N/A   Clear
5:17 AM 57.2 °F - 54.9 °F 92% 30.15 in 10.0 mi Calm Calm - N/A   Clear
5:36 AM 56.8 °F - 54.3 °F 91% 30.16 in 10.0 mi Calm Calm - N/A   Clear
5:57 AM 57.4 °F - 54.3 °F 90% 30.16 in 10.0 mi Calm Calm - N/A   Clear
6:17 AM 55.4 °F - 53.2 °F 92% 30.17 in 10.0 mi Calm Calm - N/A   Clear
6:37 AM 55.4 °F - 53.6 °F 94% 30.16 in 5.0 mi Calm Calm - N/A   Clear
6:57 AM 56.3 °F - 54.7 °F 94% 30.15 in 5.0 mi Calm Calm - N/A   Clear
7:17 AM 59.5 °F - 57.7 °F 94% 30.16 in 10.0 mi Calm Calm - N/A   Clear
7:37 AM 62.1 °F - 58.3 °F 87% 30.18 in 10.0 mi Calm Calm - N/A   Mostly Cloudy
7:57 AM 61.9 °F - 58.3 °F 88% 30.17 in 10.0 mi Calm Calm - N/A   Scattered Clouds
8:17 AM 64.6 °F - 57.9 °F 79% 30.17 in 10.0 mi Calm Calm - N/A   Clear
8:37 AM 66.2 °F - 58.1 °F 75% 30.16 in 10.0 mi SE 4.6 mph - N/A   Clear
8:57 AM 68.2 °F - 59.2 °F 73% 30.14 in 10.0 mi ESE 3.5 mph - N/A   Clear
9:16 AM 70.9 °F - 59.2 °F 66% 30.14 in 10.0 mi South 3.5 mph - N/A   Scattered Clouds
9:37 AM 70.9 °F - 58.8 °F 66% 30.15 in 10.0 mi SSE 4.6 mph - N/A   Mostly Cloudy
9:57 AM 71.8 °F - 59.5 °F 65% 30.16 in 10.0 mi Calm Calm - N/A   Scattered Clouds
10:17 AM 72.5 °F - 60.1 °F 65% 30.16 in 10.0 mi SSE 3.5 mph - N/A   Mostly Cloudy
10:37 AM 74.5 °F - 61.3 °F 63% 30.15 in 10.0 mi SSE 4.6 mph - N/A   Mostly Cloudy
10:57 AM 75.4 °F - 61.3 °F 62% 30.15 in 10.0 mi SSE 3.5 mph - N/A   Mostly Cloudy
11:17 AM 77.5 °F - 62.8 °F 60% 30.16 in 10.0 mi South 5.8 mph - N/A   Scattered Clouds
11:37 AM 79.2 °F - 62.4 °F 56% 30.16 in 10.0 mi SW 6.9 mph - N/A   Clear
11:57 AM 80.4 °F 81.6 °F 62.6 °F 54% 30.14 in 10.0 mi SW 3.5 mph - N/A   Scattered Clouds
12:17 PM 80.4 °F 81.5 °F 61.9 °F 53% 30.13 in 10.0 mi SSW 5.8 mph - N/A   Mostly Cloudy
12:37 PM 81.1 °F 82.1 °F 62.1 °F 52% 30.13 in 10.0 mi South 4.6 mph - N/A   Mostly Cloudy
12:57 PM 82.0 °F 83.3 °F 63.1 °F 53% 30.13 in 10.0 mi South 9.2 mph - N/A   Scattered Clouds
1:17 PM 82.8 °F 83.8 °F 63.0 °F 51% 30.13 in 10.0 mi SSW 5.8 mph - N/A   Clear
1:37 PM 83.3 °F 83.9 °F 61.9 °F 48% 30.13 in 10.0 mi SSW 11.5 mph - N/A   Scattered Clouds
1:57 PM 83.5 °F 84.1 °F 61.7 °F 48% 30.12 in 10.0 mi SW 10.4 mph - N/A   Scattered Clouds
2:17 PM 83.5 °F 83.9 °F 61.2 °F 47% 30.12 in 10.0 mi SSW 12.7 mph 17.3 mph N/A   Clear
2:37 PM 83.1 °F 83.5 °F 60.8 °F 47% 30.11 in 10.0 mi SSW 9.2 mph - N/A   Clear
2:57 PM 83.5 °F 83.9 °F 61.2 °F 47% 30.11 in 10.0 mi SSW 12.7 mph 18.4 mph N/A   Clear
3:17 PM 82.6 °F 82.9 °F 60.6 °F 47% 30.09 in 10.0 mi SSW 12.7 mph - N/A   Clear
3:37 PM 82.8 °F 82.7 °F 58.8 °F 44% 30.08 in 10.0 mi SSW 11.5 mph 19.6 mph N/A   Clear
3:57 PM 82.6 °F 82.5 °F 58.8 °F 44% 30.06 in 10.0 mi South 13.8 mph 20.7 mph N/A   Clear
4:17 PM 82.8 °F 82.8 °F 59.4 °F 45% 30.04 in 10.0 mi South 10.4 mph 21.9 mph N/A   Clear
4:37 PM 84.4 °F 84.2 °F 59.5 °F 43% 30.02 in 10.0 mi South 16.1 mph 26.5 mph N/A   Clear
4:57 PM 83.1 °F 82.6 °F 57.4 °F 41% 30.02 in 10.0 mi South 15.0 mph 25.3 mph N/A   Clear
5:17 PM 83.3 °F 83.1 °F 58.8 °F 43% 30.02 in 10.0 mi South 17.3 mph 23.0 mph N/A   Scattered Clouds
5:37 PM 82.0 °F 81.8 °F 57.7 °F 43% 30.02 in 10.0 mi South 10.4 mph 16.1 mph N/A   Scattered Clouds
5:57 PM 82.0 °F 82.0 °F 58.1 °F 44% 30.01 in 10.0 mi South 11.5 mph 16.1 mph N/A   Clear
6:17 PM 83.8 °F 83.4 °F 58.5 °F 42% 30.01 in 10.0 mi South 10.4 mph 21.9 mph N/A   Clear
6:37 PM 83.7 °F 83.3 °F 58.6 °F 42% 30.02 in 10.0 mi South 11.5 mph 24.2 mph N/A   Clear
6:56 PM 83.5 °F 83.1 °F 58.5 °F 42% 30.02 in 10.0 mi South 9.2 mph 21.9 mph N/A   Clear
7:17 PM 83.5 °F 83.1 °F 58.1 °F 42% 30.02 in 10.0 mi South 11.5 mph 17.3 mph N/A   Clear
7:37 PM 82.8 °F 82.4 °F 57.7 °F 42% 30.02 in 10.0 mi South 15.0 mph 19.6 mph N/A   Clear
7:56 PM 82.4 °F 82.2 °F 57.6 °F 43% 30.02 in 10.0 mi South 12.7 mph 19.6 mph N/A   Clear
8:17 PM 81.9 °F 81.9 °F 58.3 °F 45% 30.02 in 10.0 mi South 9.2 mph - N/A   Clear
8:37 PM 81.0 °F 81.2 °F 58.6 °F 46% 30.02 in 10.0 mi South 5.8 mph - N/A   Clear
8:57 PM 80.1 °F 80.7 °F 58.6 °F 48% 30.02 in 10.0 mi South 5.8 mph - N/A   Clear
9:17 PM 79.3 °F - 59.0 °F 50% 30.03 in 10.0 mi SSW 5.8 mph - N/A   Clear
9:37 PM 78.3 °F - 59.2 °F 52% 30.03 in 10.0 mi South 5.8 mph - N/A   Scattered Clouds
9:57 PM 77.2 °F - 59.5 °F 54% 30.04 in 10.0 mi Calm Calm - N/A   Clear
10:17 PM 77.0 °F - 59.5 °F 55% 30.04 in 10.0 mi Calm Calm - N/A   Scattered Clouds
10:37 PM 75.2 °F - 60.1 °F 59% 30.05 in 10.0 mi Calm Calm - N/A   Scattered Clouds
10:57 PM 74.5 °F - 60.4 °F 61% 30.05 in 10.0 mi Calm Calm - N/A   Scattered Clouds
11:17 PM 72.9 °F - 61.2 °F 67% 30.05 in 10.0 mi Calm Calm - N/A   Scattered Clouds
11:37 PM 73.4 °F - 60.8 °F 65% 30.05 in 10.0 mi Calm Calm - N/A   Scattered Clouds
11:57 PM 73.6 °F - 60.8 °F 64% 30.05 in 10.0 mi Calm Calm - N/A   Mostly Cloudy